Hailey, ID

11:25 PM MDT on March 26, 2017 (GMT -0600)
Friedman Memorial

Weather History for KSUN - December, 2011

Change the Weather History Date:

Friday, December 23, 2011

  Actual Average Record
Temperature  
Mean Temperature 16 °F -  
Max Temperature 28 °F 31 °F 51 °F (2016)
Min Temperature 5 °F 13 °F -7 °F (1998)
Degree Days  
Heating Degree Days 48    
Moisture  
Dew Point 6 °F    
Average Humidity 73    
Maximum Humidity 86    
Minimum Humidity 51    
Precipitation  
Precipitation 0.00 in - - ()
Sea Level Pressure  
Sea Level Pressure 30.51 in    
Wind  
Wind Speed 6 mph (NNW)    
Max Wind Speed 9 mph    
Max Gust Speed -    
Visibility 9 miles    
Events      
Averages and records for this station are not official NWS values.
T = Trace of Precipitation, MM = Missing Value Source: NWS Daily Summary

Daily Weather History Graph

Daily Weather History Graph

Search for Another Location

Airport or City:

Trip Planner

Search our weather history database for the weather conditions in past years. The results will help you decide how hot, cold, wet, or windy it might be!

Date:

Astronomy

Dec. 23, 2011 Rise Set
Actual Time 8:07 AM MST 5:04 PM MST
Civil Twilight 7:35 AM MST 5:37 PM MST
Nautical Twilight 6:58 AM MST 6:13 PM MST
Astronomical Twilight 6:23 AM MST 6:48 PM MST
Moon 7:01 AM MST (12/23) 4:17 PM MST (12/23)
Length of Visible Light 10h 02m
Length of Day
8h 56m
Waning Crescent, 1% of the Moon is Illuminated
Dec 23
Waning Crescent
Dec 24
New
Dec 31
First Quarter
Jan 9
Full
Jan 16
Last Quarter

Hourly Weather History & Observations

Time (MST) Temp. Windchill Dew Point Humidity Pressure Visibility Wind Dir Wind Speed Gust Speed Precip Events Conditions
12:15 AM 10.4 °F 2.2 °F 3.2 °F 73% 30.47 in 10.0 mi North 4.6 mph - N/A   Clear
12:35 AM 10.4 °F 0.8 °F 3.2 °F 73% 30.47 in 10.0 mi NNW 5.8 mph - N/A   Clear
12:55 AM 10.4 °F -2.4 °F 5.0 °F 79% 30.47 in 10.0 mi NW 9.2 mph - N/A   Clear
1:15 AM 10.4 °F -1.5 °F 5.0 °F 79% 30.47 in 10.0 mi NW 8.1 mph - N/A   Clear
1:35 AM 10.4 °F 0.8 °F 3.2 °F 73% 30.47 in 10.0 mi NNW 5.8 mph - N/A   Clear
1:55 AM 8.6 °F -4.7 °F 3.2 °F 79% 30.47 in 10.0 mi NNW 9.2 mph - N/A   Clear
2:15 AM 8.6 °F -1.3 °F 3.2 °F 79% 30.47 in 10.0 mi NW 5.8 mph - N/A   Clear
2:35 AM 8.6 °F -2.6 °F 3.2 °F 79% 30.47 in 10.0 mi NNW 6.9 mph - N/A   Clear
2:55 AM 10.4 °F -0.4 °F 3.2 °F 73% 30.47 in 10.0 mi NW 6.9 mph - N/A   Clear
3:15 AM 10.4 °F 0.8 °F 3.2 °F 73% 30.48 in 10.0 mi NW 5.8 mph - N/A   Clear
3:35 AM 8.6 °F -1.3 °F 3.2 °F 79% 30.49 in 10.0 mi NNW 5.8 mph - N/A   Clear
3:55 AM 8.6 °F 0.1 °F 3.2 °F 79% 30.49 in 10.0 mi North 4.6 mph - N/A   Clear
4:15 AM 8.6 °F -2.6 °F 3.2 °F 79% 30.49 in 10.0 mi North 6.9 mph - N/A   Clear
4:35 AM 8.6 °F -2.6 °F 3.2 °F 79% 30.48 in 10.0 mi NNW 6.9 mph - N/A   Clear
5:15 AM 8.6 °F -1.3 °F 3.2 °F 79% 30.49 in 10.0 mi NNW 5.8 mph - N/A   Clear
5:35 AM 8.6 °F 2.0 °F 3.2 °F 79% 30.49 in 10.0 mi North 3.5 mph - N/A   Clear
5:55 AM 8.6 °F 2.0 °F 3.2 °F 79% 30.50 in 10.0 mi NW 3.5 mph - N/A   Clear
6:47 AM 6.8 °F -3.5 °F 1.4 °F 79% 30.51 in 7.0 mi WNW 5.8 mph - N/A   Clear
7:47 AM 6.8 °F -0.1 °F 1.4 °F 79% 30.52 in 7.0 mi NW 3.5 mph - N/A   Clear
8:47 AM 5.0 °F - 1.4 °F 85% 30.54 in 7.0 mi Calm Calm - N/A   Partly Cloudy
9:47 AM 10.4 °F 0.8 °F 3.2 °F 73% 30.55 in 7.0 mi WNW 5.8 mph - N/A   Partly Cloudy
10:47 AM 15.8 °F - 5.0 °F 62% 30.55 in 7.0 mi Calm Calm - N/A   Scattered Clouds
11:47 AM 21.2 °F 13.6 °F 10.4 °F 63% 30.54 in 7.0 mi ESE 5.8 mph - N/A   Scattered Clouds
12:50 PM 24.8 °F 17.9 °F 12.2 °F 59% 30.52 in 7.0 mi SE 5.8 mph - N/A   Mostly Cloudy
1:47 PM 26.6 °F 20.0 °F 12.2 °F 55% 30.49 in 7.0 mi ESE 5.8 mph - N/A   Scattered Clouds
2:50 PM 28.4 °F 21.2 °F 12.2 °F 51% 30.49 in 7.0 mi ESE 6.9 mph - N/A   Scattered Clouds
3:47 PM 28.4 °F 22.2 °F 12.2 °F 51% 30.49 in 10.0 mi ESE 5.8 mph - N/A   Scattered Clouds
4:47 PM 24.8 °F - 10.4 °F 54% 30.50 in 10.0 mi Calm Calm - N/A   Partly Cloudy
6:47 PM 19.4 °F - 10.4 °F 68% 30.55 in 10.0 mi Calm Calm - N/A   Clear
7:47 PM 17.6 °F 9.3 °F 8.6 °F 68% 30.55 in 10.0 mi NW 5.8 mph - N/A   Clear
8:50 PM 15.8 °F 7.2 °F 8.6 °F 73% 30.57 in 10.0 mi WNW 5.8 mph - N/A   Clear
9:50 PM 15.8 °F 6.1 °F 8.6 °F 73% 30.58 in 10.0 mi NW 6.9 mph - N/A   Clear
10:15 PM 15.8 °F 6.1 °F 10.4 °F 79% 30.57 in 10.0 mi NNW 6.9 mph - N/A   Clear
10:35 PM 14.0 °F 2.0 °F 8.6 °F 79% 30.57 in 10.0 mi NNW 9.2 mph - N/A   Clear
10:47 PM 15.8 °F 5.1 °F 8.6 °F 73% 30.57 in 10.0 mi WNW 8.1 mph - N/A   Clear
10:55 PM 15.8 °F 5.1 °F 10.4 °F 79% 30.57 in 10.0 mi WNW 8.1 mph - N/A   Clear
11:15 PM 14.0 °F 8.2 °F 8.6 °F 79% 30.56 in 10.0 mi North 3.5 mph - N/A   Clear
11:35 PM 15.8 °F 4.2 °F 10.4 °F 79% 30.57 in 10.0 mi NW 9.2 mph - N/A   Clear
11:55 PM 14.0 °F 6.5 °F 10.4 °F 86% 30.57 in 10.0 mi NW 4.6 mph - N/A   Clear